Location: Grantham
(50.0698°N, 112.0083°W)
Time: 23:41:27
(UTC+00:00)

ISS - Pass Details

Date: 30 November 2021
Orbit: 413 x 422 km, 51.6° (Epoch: 24 January)

Event Time Altitude Azimuth Distance (km) Brightness Sun altitude
Rises 01:17:18 0° 277° (W) 2,385 1.4 -16.5°
Reaches altitude 10° 01:19:26 10° 281° (W) 1,517 0.1 -16.9°
Maximum altitude 01:22:49 66° 4° (N) 467 -3.7 -17.4°
Enters shadow 01:23:27 51° 60° (ENE) 538 -3.7 -17.5°
